MAS113 OMDB-OERK

Flight info

Callsign MAS113
Flight time N/A
Altitude 32000
Route SENPA N571 ALPOB L768 ULADA T136 OTISU N112 GETOT Q212 MEMGO
Aircraft B38M/M-SDE1FGHILORVWXY/HB1

Departure

Time 2026-04-23 12:59
Airport Dubai International Airport (OMDB)

Arrival

Time N/A
Airport King Khalid International Airport (OERK)
Time Latitude Longitude Altitude Speed Heading
2026-04-23 12:33 25.25699 55.37150 23 ft 0 kts 31°
2026-04-23 12:47 25.25697 55.37149 23 ft 1 kts 31°
2026-04-23 12:47 25.25684 55.37140 24 ft 2 kts 31°
2026-04-23 12:48 25.25672 55.37132 24 ft 2 kts 31°
2026-04-23 12:48 25.25660 55.37121 25 ft 2 kts 49°
2026-04-23 12:48 25.25651 55.37108 25 ft 2 kts 62°
2026-04-23 12:48 25.25646 55.37092 25 ft 2 kts 78°
2026-04-23 12:49 25.25644 55.37075 25 ft 2 kts 93°
2026-04-23 12:49 25.25647 55.37059 25 ft 2 kts 108°
2026-04-23 12:49 25.25651 55.37047 24 ft 0 kts 120°
2026-04-23 12:49 25.25655 55.37041 24 ft 0 kts 122°
2026-04-23 12:52 25.25654 55.37042 24 ft 0 kts 122°
2026-04-23 12:52 25.25642 55.37064 25 ft 6 kts 122°
2026-04-23 12:53 25.25616 55.37111 26 ft 8 kts 121°
2026-04-23 12:53 25.25575 55.37185 27 ft 13 kts 120°
2026-04-23 12:53 25.25521 55.37286 30 ft 16 kts 121°
2026-04-23 12:53 25.25453 55.37406 31 ft 20 kts 121°
2026-04-23 12:54 25.25371 55.37558 31 ft 25 kts 121°
2026-04-23 12:54 25.25271 55.37740 32 ft 27 kts 121°
2026-04-23 12:54 25.25191 55.37891 32 ft 12 kts 121°
2026-04-23 12:54 25.25149 55.37967 32 ft 10 kts 121°
2026-04-23 12:55 25.25112 55.38032 31 ft 9 kts 122°
2026-04-23 12:55 25.25080 55.38088 31 ft 7 kts 122°
2026-04-23 12:55 25.25052 55.38133 31 ft 6 kts 127°
2026-04-23 12:55 25.25025 55.38160 32 ft 4 kts 153°
2026-04-23 12:56 25.24999 55.38165 33 ft 4 kts 183°
2026-04-23 12:56 25.24967 55.38152 34 ft 3 kts 207°
2026-04-23 12:56 25.24949 55.38142 34 ft 3 kts 208°
2026-04-23 12:56 25.24925 55.38126 35 ft 3 kts 212°
2026-04-23 12:57 25.24910 55.38116 35 ft 3 kts 212°
2026-04-23 12:57 25.24905 55.38112 36 ft 0 kts 212°
2026-04-23 12:57 25.24903 55.38111 36 ft 2 kts 212°
2026-04-23 12:57 25.24881 55.38096 36 ft 3 kts 212°
2026-04-23 12:58 25.24842 55.38069 36 ft 10 kts 212°
2026-04-23 12:58 25.24824 55.38006 36 ft 8 kts 288°
2026-04-23 12:58 25.24842 55.37963 36 ft 0 kts 300°
2026-04-23 12:58 25.24872 55.37907 36 ft 36 kts 301°
2026-04-23 12:59 25.25151 55.37418 34 ft 113 kts 301°
2026-04-23 12:59 25.25687 55.36470 163 ft 161 kts 303°
2026-04-23 12:59 25.26198 55.35433 1053 ft 152 kts 295°
2026-04-23 12:59 25.26569 55.34351 1685 ft 161 kts 298°
2026-04-23 13:00 25.27259 55.33328 2189 ft 170 kts 311°
2026-04-23 13:00 25.27997 55.32263 2673 ft 183 kts 305°
2026-04-23 13:00 25.28702 55.31036 3166 ft 196 kts 302°
2026-04-23 13:00 25.29396 55.29708 3760 ft 203 kts 295°
2026-04-23 13:01 25.29673 55.28192 4336 ft 212 kts 262°
2026-04-23 13:01 25.29010 55.26712 4878 ft 223 kts 233°
2026-04-23 13:01 25.28011 55.25332 5367 ft 235 kts 234°
2026-04-23 13:01 25.27088 55.23788 5830 ft 246 kts 245°
2026-04-23 13:02 25.26729 55.21932 6208 ft 250 kts 271°
2026-04-23 13:02 25.26944 55.20046 6514 ft 252 kts 279°
2026-04-23 13:02 25.27290 55.18094 7032 ft 260 kts 280°
2026-04-23 13:02 25.27693 55.16133 7559 ft 266 kts 282°
2026-04-23 13:03 25.28167 55.14127 8076 ft 276 kts 283°
2026-04-23 13:03 25.28678 55.12049 8583 ft 284 kts 283°
2026-04-23 13:03 25.29216 55.09921 9124 ft 288 kts 283°
2026-04-23 13:03 25.29765 55.07784 9660 ft 291 kts 283°
2026-04-23 13:04 25.30323 55.05652 10192 ft 293 kts 283°
2026-04-23 13:04 25.30886 55.03486 10724 ft 294 kts 281°
2026-04-23 13:04 25.31297 55.01267 11259 ft 293 kts 276°
2026-04-23 13:04 25.31585 54.99048 11789 ft 294 kts 274°
2026-04-23 13:05 25.31749 54.96778 12357 ft 300 kts 264°
2026-04-23 13:05 25.31406 54.94514 13156 ft 297 kts 255°
2026-04-23 13:05 25.30899 54.92311 13882 ft 299 kts 254°
2026-04-23 13:05 25.30397 54.90085 14619 ft 301 kts 256°
2026-04-23 13:06 25.29505 54.85531 14959 ft 304 kts 259°
2026-04-23 13:06 25.29145 54.83204 14831 ft 301 kts 263°
2026-04-23 13:06 25.29203 54.80924 14809 ft 302 kts 277°
2026-04-23 13:07 25.29656 54.78617 14805 ft 305 kts 282°
2026-04-23 13:07 25.30208 54.76357 14806 ft 305 kts 283°
2026-04-23 13:07 25.30784 54.74102 14804 ft 305 kts 283°
2026-04-23 13:07 25.31361 54.71862 14802 ft 306 kts 283°
2026-04-23 13:08 25.31959 54.69534 15255 ft 314 kts 283°
2026-04-23 13:08 25.32530 54.67300 16326 ft 302 kts 282°
2026-04-23 13:08 25.32832 54.65019 16956 ft 303 kts 270°
2026-04-23 13:08 25.32794 54.62685 17585 ft 305 kts 268°
2026-04-23 13:09 25.32790 54.60370 18203 ft 307 kts 272°
2026-04-23 13:09 25.32979 54.58004 18759 ft 311 kts 276°
2026-04-23 13:09 25.33222 54.55637 19340 ft 313 kts 276°
2026-04-23 13:09 25.33582 54.53236 19887 ft 316 kts 280°
2026-04-23 13:10 25.34078 54.50883 20433 ft 319 kts 283°
2026-04-23 13:10 25.34684 54.48492 20979 ft 321 kts 284°
2026-04-23 13:10 25.35328 54.46114 21471 ft 325 kts 285°
2026-04-23 13:10 25.35890 54.43730 22003 ft 324 kts 280°
2026-04-23 13:11 25.36259 54.41282 22488 ft 326 kts 277°
2026-04-23 13:11 25.36553 54.38766 22925 ft 330 kts 276°
2026-04-23 13:11 25.36842 54.36245 23451 ft 330 kts 277°
2026-04-23 13:11 25.37156 54.33715 23896 ft 333 kts 277°
2026-04-23 13:12 25.37489 54.31197 24391 ft 335 kts 278°
2026-04-23 13:12 25.37843 54.28630 24840 ft 337 kts 278°
2026-04-23 13:12 25.38198 54.26096 25320 ft 338 kts 278°
2026-04-23 13:12 25.38565 54.23498 25773 ft 339 kts 278°
2026-04-23 13:13 25.38929 54.20923 26178 ft 342 kts 279°
2026-04-23 13:13 25.39297 54.18322 26583 ft 344 kts 279°
2026-04-23 13:13 25.39661 54.15744 27028 ft 344 kts 279°
2026-04-23 13:13 25.40028 54.13128 27456 ft 345 kts 279°
2026-04-23 13:14 25.40396 54.10509 27824 ft 347 kts 279°
2026-04-23 13:14 25.40769 54.07853 28156 ft 350 kts 279°
2026-04-23 13:14 25.41141 54.05196 28579 ft 350 kts 279°
2026-04-23 13:14 25.41513 54.02525 28983 ft 350 kts 280°
2026-04-23 13:15 25.41885 53.99859 29279 ft 354 kts 280°
2026-04-23 13:15 25.42257 53.97187 29662 ft 354 kts 280°
2026-04-23 13:15 25.42632 53.94495 30010 ft 356 kts 280°
2026-04-23 13:15 25.43010 53.91783 30373 ft 357 kts 279°
2026-04-23 13:16 25.43390 53.89055 30732 ft 357 kts 279°
2026-04-23 13:16 25.43769 53.86342 31037 ft 359 kts 279°
2026-04-23 13:16 25.44146 53.83632 31320 ft 361 kts 279°
2026-04-23 13:16 25.44532 53.80857 31645 ft 363 kts 279°
2026-04-23 13:17 25.44913 53.78106 31815 ft 365 kts 279°
2026-04-23 13:17 25.45675 53.72567 31816 ft 362 kts 279°
2026-04-23 13:18 25.46439 53.67029 31821 ft 363 kts 279°
2026-04-23 13:18 25.47195 53.61522 31822 ft 363 kts 279°
2026-04-23 13:19 25.47957 53.55962 31822 ft 363 kts 279°
2026-04-23 13:19 25.48715 53.50429 31822 ft 363 kts 279°
2026-04-23 13:20 25.49468 53.44879 31822 ft 363 kts 278°
2026-04-23 13:20 25.50218 53.39317 31822 ft 363 kts 279°
2026-04-23 13:21 25.50963 53.33787 31822 ft 362 kts 278°
2026-04-23 13:21 25.51706 53.28301 31822 ft 362 kts 278°
2026-04-23 13:22 25.52452 53.22783 31822 ft 362 kts 278°
2026-04-23 13:22 25.53186 53.17287 31826 ft 361 kts 278°
2026-04-23 13:23 25.53926 53.11765 31831 ft 361 kts 278°
2026-04-23 13:23 25.54656 53.06294 31834 ft 360 kts 278°
2026-04-23 13:24 25.55383 53.00822 31841 ft 359 kts 278°
2026-04-23 13:24 25.56110 52.95353 31840 ft 359 kts 278°
2026-04-23 13:25 25.56828 52.89894 31842 ft 358 kts 278°
2026-04-23 13:25 25.57547 52.84420 31839 ft 358 kts 278°
2026-04-23 13:26 25.58259 52.78968 31837 ft 358 kts 278°
2026-04-23 13:26 25.58973 52.73547 31837 ft 358 kts 278°
2026-04-23 13:27 25.59686 52.68100 31837 ft 359 kts 279°
2026-04-23 13:27 25.60399 52.62647 31839 ft 358 kts 278°
2026-04-23 13:28 25.61103 52.57204 31846 ft 357 kts 278°
2026-04-23 13:28 25.61809 52.51736 31844 ft 358 kts 278°
2026-04-23 13:29 25.62509 52.46318 31839 ft 358 kts 278°
2026-04-23 13:29 25.63210 52.40871 31840 ft 358 kts 278°
2026-04-23 13:30 25.63904 52.35434 31847 ft 356 kts 278°
2026-04-23 13:30 25.64603 52.29979 31847 ft 356 kts 278°
2026-04-23 13:31 25.65296 52.24552 31847 ft 357 kts 278°
2026-04-23 13:31 25.65982 52.19134 31842 ft 355 kts 278°
2026-04-23 13:32 25.66670 52.13720 31837 ft 356 kts 278°
2026-04-23 13:32 25.67360 52.08293 31840 ft 357 kts 278°
2026-04-23 13:33 25.68051 52.02838 31841 ft 356 kts 278°
2026-04-23 13:33 25.68721 51.97452 31842 ft 355 kts 278°
2026-04-23 13:34 25.69401 51.92028 31846 ft 355 kts 278°
2026-04-23 13:34 25.70081 51.86628 31846 ft 356 kts 278°
2026-04-23 13:35 25.70756 51.81187 31849 ft 355 kts 278°
2026-04-23 13:35 25.71427 51.75777 31852 ft 355 kts 278°
2026-04-23 13:36 25.72095 51.70369 31849 ft 355 kts 278°
2026-04-23 13:36 25.72762 51.64939 31850 ft 354 kts 278°
2026-04-23 13:36 25.72800 51.62214 31812 ft 358 kts 263°
2026-04-23 13:37 25.72306 51.59499 31842 ft 358 kts 261°
2026-04-23 13:37 25.71762 51.56812 31951 ft 358 kts 259°
2026-04-23 13:37 25.71158 51.54113 31936 ft 360 kts 259°
2026-04-23 13:38 25.69900 51.48727 31911 ft 362 kts 259°
2026-04-23 13:38 25.69264 51.46039 32063 ft 360 kts 258°
2026-04-23 13:38 25.68628 51.43338 32067 ft 361 kts 259°
2026-04-23 13:38 25.67983 51.40608 31923 ft 365 kts 259°
2026-04-23 13:39 25.67341 51.37902 31995 ft 364 kts 259°
2026-04-23 13:39 25.66697 51.35181 32116 ft 362 kts 259°
2026-04-23 13:39 25.66062 51.32487 32086 ft 365 kts 258°
2026-04-23 13:40 25.64767 51.26964 32072 ft 368 kts 258°
2026-04-23 13:40 25.64127 51.24234 32227 ft 365 kts 259°
2026-04-23 13:40 25.63489 51.21505 32356 ft 363 kts 258°
2026-04-23 13:41 25.62238 51.16095 32343 ft 366 kts 259°
2026-04-23 13:41 25.60958 51.10616 32526 ft 364 kts 258°
2026-04-23 13:41 25.60204 51.07937 32285 ft 370 kts 248°
2026-04-23 13:42 25.58655 51.05660 31931 ft 379 kts 226°
2026-04-23 13:42 25.56300 51.04262 31869 ft 392 kts 204°
2026-04-23 13:42 25.53534 51.03846 31863 ft 417 kts 186°
2026-04-23 13:42 25.50584 51.04385 31858 ft 439 kts 169°
2026-04-23 13:43 25.47714 51.05784 31856 ft 453 kts 155°
2026-04-23 13:43 25.45249 51.08047 31852 ft 465 kts 133°
2026-04-23 13:43 25.43602 51.11135 31855 ft 474 kts 110°
2026-04-23 13:43 25.42942 51.14731 31863 ft 478 kts 92°
2026-04-23 13:44 25.43035 51.18411 31858 ft 476 kts 82°
2026-04-23 13:44 25.44038 51.25603 31849 ft 472 kts 77°
2026-04-23 13:45 25.45111 51.32806 31849 ft 472 kts 79°
2026-04-23 13:45 25.45922 51.40015 31853 ft 474 kts 82°